Weather History for KSXT - November, 2012

Change the Weather History Date:

Monday, November 5, 2012

  Actual Average Record
Temperature  
Mean Temperature 60 °F -  
Max Temperature 66 °F 47 °F 66 °F (2012)
Min Temperature 53 °F 37 °F 28 °F (1996)
Degree Days  
Heating Degree Days 6    
Growing Degree Days 10 (Base 50)    
Moisture  
Dew Point 47 °F    
Average Humidity 62    
Maximum Humidity 83    
Minimum Humidity 36    
Precipitation  
Precipitation 0.00 in - - ()
Sea Level Pressure  
Sea Level Pressure 30.22 in    
Wind  
Wind Speed 5 mph (East)    
Max Wind Speed 10 mph    
Max Gust Speed -    
Visibility 10 miles    
Events      
Averages and records for this station are not official NWS values.
T = Trace of Precipitation, MM = Missing Value Source: NWS Daily Summary

Daily Weather History Graph

Daily Weather History Graph

Search for Another Location

Airport or City:

Trip Planner

Search our weather history database for the weather conditions in past years. The results will help you decide how hot, cold, wet, or windy it might be!

Date:

Astronomy

Nov. 05, 2012 Rise Set
Actual Time 6:52 AM PST 5:00 PM PST
Civil Twilight 6:23 AM PST 5:30 PM PST
Nautical Twilight 5:49 AM PST 6:03 PM PST
Astronomical Twilight 5:16 AM PST 6:36 PM PST
Moon 10:44 PM PST (11/5) 12:15 PM PST (11/5)
Length of Visible Light 11h 06m
Length of Day
10h 07m
Waning Gibbous, 62% of the Moon is Illuminated
Nov 5
Waning Gibbous
Nov 6
Last Quarter
Nov 13
New
Nov 20
First Quarter
Nov 28
Full

Hourly Weather History & Observations

Time (PST) Temp. Dew Point Humidity Pressure Visibility Wind Dir Wind Speed Gust Speed Precip Events Conditions
12:56 AM 57.0 °F 48.9 °F 74% 30.31 in 10.0 mi Calm Calm - N/A   Clear
1:56 AM 55.9 °F 48.0 °F 75% 30.31 in 10.0 mi North 5.8 mph - N/A   Clear
2:56 AM 55.0 °F 48.0 °F 77% 30.30 in 10.0 mi NNE 5.8 mph - N/A   Clear
3:56 AM 55.0 °F 46.9 °F 74% 30.30 in 10.0 mi NNE 5.8 mph - N/A   Clear
4:56 AM 55.9 °F 48.0 °F 75% 30.30 in 10.0 mi ENE 3.5 mph - N/A   Clear
5:56 AM 53.1 °F 48.0 °F 83% 30.30 in 10.0 mi SE 8.1 mph - N/A   Clear
6:56 AM 55.9 °F 48.0 °F 75% 30.30 in 10.0 mi East 3.5 mph - N/A   Clear
7:56 AM 57.9 °F 48.9 °F 72% 30.29 in 10.0 mi ESE 4.6 mph - N/A   Clear
8:56 AM 60.1 °F 50.0 °F 69% 30.28 in 10.0 mi ESE 5.8 mph - N/A   Clear
9:56 AM 61.0 °F 50.0 °F 67% 30.26 in 10.0 mi ESE 6.9 mph - 0.00 in   Clear
10:56 AM 63.0 °F 48.9 °F 60% 30.25 in 10.0 mi ESE 5.8 mph - N/A   Clear
11:56 AM 64.0 °F 46.9 °F 54% 30.24 in 10.0 mi ESE 6.9 mph - N/A   Clear
12:56 PM 66.0 °F 48.0 °F 52% 30.21 in 10.0 mi ESE 4.6 mph - N/A   Clear
1:56 PM 64.9 °F 46.0 °F 50% 30.20 in 10.0 mi Variable 3.5 mph - N/A   Clear
2:56 PM 66.0 °F 37.9 °F 36% 30.19 in 10.0 mi East 4.6 mph - N/A   Clear
3:56 PM 66.0 °F 41.0 °F 40% 30.18 in 10.0 mi East 3.5 mph - N/A   Clear
4:56 PM 64.9 °F 39.9 °F 40% 30.17 in 10.0 mi East 3.5 mph - N/A   Clear
5:56 PM 63.0 °F 48.0 °F 58% 30.18 in 10.0 mi East 4.6 mph - N/A   Clear
6:56 PM 63.0 °F 46.9 °F 56% 30.16 in 10.0 mi East 3.5 mph - N/A   Clear
7:56 PM 61.0 °F 48.9 °F 64% 30.15 in 10.0 mi ESE 4.6 mph - N/A   Clear
8:56 PM 61.0 °F 48.9 °F 64% 30.14 in 10.0 mi ESE 9.2 mph - N/A   Clear
9:56 PM 61.0 °F 46.9 °F 60% 30.13 in 10.0 mi East 5.8 mph - N/A   Clear
10:56 PM 60.1 °F 46.0 °F 60% 30.11 in 10.0 mi ESE 10.4 mph - N/A   Clear
11:56 PM 61.0 °F 42.1 °F 50% 30.09 in 10.0 mi ESE 10.4 mph - N/A   Clear